Tracking 31027 objects as of 19-Jul-2025
HD Live streaming from Space Station
objects crossing your sky now

SL-14 DEB

Track SL-14 DEB now!
10-day predictions


NORAD ID: 45323
Int'l Code: 1991-056BM
Perigee: 1,186.1 km
Apogee: 1,193.8 km
Inclination: 82.5 °
Period: 109.0 minutes
Semi major axis: 7560 km
RCS: Unknown
Launch date: August 15, 1991
Source: Commonwealth of Independent States (former USSR) (CIS)
Launch site: PLESETSK MISSILE AND SPACE COMPLEX (PKMTR)

Note: This is SATELLITE DEBRIS
Your satellite tracking list
COSMOS 2251 DEB
Track 1 satellite(s)




NASA's NSSDC Master Catalog

Two Line Element Set (TLE):
1 45323U 91056BM  25199.48423185  .00000390  00000-0  93240-3 0  9992
2 45323  82.5313   5.2134 0005105 184.7841 175.3236 13.20508204259345
Source of the keplerian elements: AFSPC